Time,TemperatureF,DewpointF,PressureIn,WindDirection,WindDirectionDegrees,WindSpeedMPH,WindSpeedGustMPH,Humidity,HourlyPrecipIn,Conditions,Clouds,dailyrainin,SoftwareType,DateUTC
2013-06-11 00:00:00,66.8,60.7,27.79,WNW,293,0.0,0.9,81,0.04,,,0.00,WSDL version 420,2013-06-11 04:00:00,
2013-06-11 00:05:00,66.2,60.4,27.79,West,263,1.6,2.5,82,0.09,,,0.05,WSDL version 420,2013-06-11 04:05:00,
2013-06-11 00:10:00,66.2,60.2,27.82,WNW,293,0.3,2.5,81,0.09,,,0.05,WSDL version 420,2013-06-11 04:10:00,
2013-06-11 00:15:00,66.0,60.1,27.82,West,278,0.0,1.1,81,0.12,,,0.08,WSDL version 420,2013-06-11 04:15:00,
2013-06-11 00:20:00,64.9,59.1,27.82,SW,233,1.9,3.1,82,0.17,,,0.13,WSDL version 420,2013-06-11 04:20:00,
2013-06-11 00:25:00,63.7,58.2,27.82,West,278,1.0,3.1,82,-99.99,,,-99.99,WSDL version 420,2013-06-11 04:25:00,
2013-06-11 00:30:00,63.6,58.0,27.82,SW,225,0.4,3.1,82,0.21,,,0.17,WSDL version 420,2013-06-11 04:30:00,
2013-06-11 00:35:00,63.6,58.1,27.82,NNE,23,0.0,2.7,82,0.21,,,0.17,WSDL version 420,2013-06-11 04:35:00,
2013-06-11 00:40:00,63.7,58.0,27.85,NW,304,2.0,3.1,81,0.21,,,0.17,WSDL version 420,2013-06-11 04:40:00,
2013-06-11 00:45:00,63.6,57.7,27.85,WNW,293,0.0,3.1,81,0.25,,,0.21,WSDL version 420,2013-06-11 04:45:00,
2013-06-11 00:50:00,63.9,58.0,27.85,WNW,293,0.0,0.0,81,0.25,,,0.21,WSDL version 420,2013-06-11 04:50:00,
2013-06-11 00:55:00,64.0,58.1,27.82,WNW,293,0.0,0.0,81,0.25,,,0.21,WSDL version 420,2013-06-11 04:55:00,
2013-06-11 01:00:00,64.0,58.1,27.82,WNW,293,0.0,0.0,81,0.21,,,0.21,WSDL version 420,2013-06-11 05:00:00,
2013-06-11 01:05:00,64.2,58.6,27.82,WNW,293,0.0,0.0,82,0.16,,,0.21,WSDL version 420,2013-06-11 05:05:00,
2013-06-11 01:15:00,64.2,58.7,27.85,WNW,293,0.0,0.0,82,0.13,,,0.21,WSDL version 420,2013-06-11 05:15:00,
2013-06-11 01:20:00,64.2,58.7,27.85,WNW,293,0.0,0.0,82,0.08,,,0.21,WSDL version 420,2013-06-11 05:20:00,
2013-06-11 01:25:00,64.2,58.7,27.85,South,180,0.0,0.0,82,0.04,,,0.21,WSDL version 420,2013-06-11 05:25:00,
2013-06-11 01:30:00,64.2,58.8,27.85,North,360,0.0,0.0,83,0.04,,,0.21,WSDL version 420,2013-06-11 05:30:00,
2013-06-11 01:35:00,64.2,59.1,27.85,North,360,0.0,0.0,83,0.04,,,0.21,WSDL version 420,2013-06-11 05:35:00,
2013-06-11 01:40:00,64.4,58.9,27.85,North,360,0.0,0.0,82,0.04,,,0.21,WSDL version 420,2013-06-11 05:40:00,
2013-06-11 01:45:00,64.3,59.0,27.85,SE,135,0.0,0.0,83,0.00,,,0.21,WSDL version 420,2013-06-11 05:45:00,
2013-06-11 01:50:00,64.3,59.2,27.85,North,8,0.0,0.9,83,0.00,,,0.21,WSDL version 420,2013-06-11 05:50:00,
2013-06-11 01:55:00,64.3,59.2,27.85,NNW,338,0.0,0.9,83,0.00,,,0.21,WSDL version 420,2013-06-11 05:55:00,
2013-06-11 02:00:00,64.4,59.2,27.85,North,360,0.0,0.0,83,0.00,,,0.21,WSDL version 420,2013-06-11 06:00:00,
2013-06-11 02:05:00,64.4,59.2,27.85,SSW,203,0.0,0.0,83,0.00,,,0.21,WSDL version 420,2013-06-11 06:05:00,
2013-06-11 02:10:00,64.4,59.2,27.85,WSW,248,0.0,0.0,83,-99.99,,,-99.99,WSDL version 420,2013-06-11 06:10:00,
2013-06-11 02:15:00,64.4,59.4,27.85,South,180,0.0,0.0,84,0.00,,,0.21,WSDL version 420,2013-06-11 06:15:00,
2013-06-11 02:20:00,64.4,59.2,27.85,WNW,293,0.0,0.0,83,0.00,,,0.21,WSDL version 420,2013-06-11 06:20:00,
2013-06-11 02:25:00,64.4,59.5,27.85,WNW,293,0.0,0.0,84,0.00,,,0.21,WSDL version 420,2013-06-11 06:25:00,
2013-06-11 02:30:00,64.4,59.6,27.85,WSW,255,0.0,0.0,84,0.00,,,0.21,WSDL version 420,2013-06-11 06:30:00,
2013-06-11 02:35:00,64.4,59.6,27.85,East,90,0.0,0.0,84,-99.99,,,-99.99,WSDL version 420,2013-06-11 06:35:00,
2013-06-11 02:40:00,64.4,59.6,27.85,NNW,338,0.0,0.0,84,0.00,,,0.21,WSDL version 420,2013-06-11 06:40:00,
2013-06-11 02:45:00,64.4,59.7,27.85,WNW,293,0.0,0.0,86,0.00,,,0.21,WSDL version 420,2013-06-11 06:45:00,
2013-06-11 02:50:00,64.6,60.2,27.85,WNW,293,0.0,0.0,86,0.00,,,0.21,WSDL version 420,2013-06-11 06:50:00,
2013-06-11 02:55:00,64.4,60.0,27.82,WSW,255,0.0,0.0,86,0.00,,,0.21,WSDL version 420,2013-06-11 06:55:00,
2013-06-11 03:00:00,64.5,60.1,27.82,North,360,0.0,0.0,86,0.00,,,0.21,WSDL version 420,2013-06-11 07:00:00,
2013-06-11 03:05:00,64.6,60.2,27.82,WNW,293,0.0,0.0,86,0.00,,,0.21,WSDL version 420,2013-06-11 07:05:00,
2013-06-11 03:10:00,64.6,60.2,27.82,NW,323,0.0,0.0,86,0.00,,,0.21,WSDL version 420,2013-06-11 07:10:00,
2013-06-11 03:15:00,64.5,60.1,27.82,NNW,330,0.0,1.3,86,0.00,,,0.21,WSDL version 420,2013-06-11 07:15:00,
2013-06-11 03:20:00,64.4,60.0,27.82,ENE,68,0.0,1.3,86,0.00,,,0.21,WSDL version 420,2013-06-11 07:20:00,
2013-06-11 03:26:00,64.6,60.5,27.85,SSW,203,1.5,2.2,87,0.00,,,0.21,WSDL version 420,2013-06-11 07:26:00,
2013-06-11 03:32:00,64.6,60.5,27.85,SW,233,0.0,2.2,87,0.00,,,0.21,WSDL version 420,2013-06-11 07:32:00,
2013-06-11 03:38:00,64.6,60.5,27.82,NE,38,0.0,0.0,87,0.00,,,0.21,WSDL version 420,2013-06-11 07:38:00,
2013-06-11 03:43:00,64.5,60.5,27.82,WNW,285,0.3,2.2,87,0.00,,,0.21,WSDL version 420,2013-06-11 07:43:00,
2013-06-11 03:48:00,64.6,60.5,27.82,West,278,0.6,2.2,87,0.00,,,0.21,WSDL version 420,2013-06-11 07:48:00,
2013-06-11 03:53:00,64.5,60.4,27.85,West,281,1.2,2.0,87,0.00,,,0.21,WSDL version 420,2013-06-11 07:53:00,
2013-06-11 03:58:00,64.5,60.4,27.85,NW,304,0.0,2.0,87,0.00,,,0.21,WSDL version 420,2013-06-11 07:58:00,
2013-06-11 04:03:00,64.4,60.3,27.85,West,278,1.5,2.2,87,0.00,,,0.21,WSDL version 420,2013-06-11 08:03:00,
2013-06-11 04:08:00,64.6,60.5,27.85,NNW,330,1.0,2.2,87,0.00,,,0.21,WSDL version 420,2013-06-11 08:08:00,
2013-06-11 04:13:00,64.4,60.3,27.85,NW,326,0.0,2.0,87,0.00,,,0.21,WSDL version 420,2013-06-11 08:13:00,
2013-06-11 04:18:00,64.4,60.3,27.85,West,263,0.3,2.0,87,0.00,,,0.21,WSDL version 420,2013-06-11 08:18:00,
2013-06-11 04:23:00,64.4,60.3,27.85,South,174,1.6,3.1,87,0.00,,,0.21,WSDL version 420,2013-06-11 08:23:00,
2013-06-11 04:28:00,64.4,60.3,27.85,WNW,293,0.0,3.1,87,0.00,,,0.21,WSDL version 420,2013-06-11 08:28:00,
2013-06-11 04:33:00,64.4,60.3,27.85,North,353,1.0,2.2,87,0.00,,,0.21,WSDL version 420,2013-06-11 08:33:00,
2013-06-11 04:38:00,64.4,60.3,27.85,West,270,0.9,2.2,87,0.00,,,0.21,WSDL version 420,2013-06-11 08:38:00,
2013-06-11 04:43:00,64.4,60.3,27.85,SSW,195,0.4,1.3,87,0.00,,,0.21,WSDL version 420,2013-06-11 08:43:00,
2013-06-11 04:48:00,64.4,60.7,27.85,NNW,338,1.0,1.6,88,0.00,,,0.21,WSDL version 420,2013-06-11 08:48:00,
2013-06-11 04:53:00,64.4,60.3,27.85,WNW,293,0.7,1.6,87,0.00,,,0.21,WSDL version 420,2013-06-11 08:53:00,
2013-06-11 04:58:00,64.4,60.3,27.85,SSE,165,0.7,2.2,87,0.00,,,0.21,WSDL version 420,2013-06-11 08:58:00,
2013-06-11 05:03:00,64.4,60.3,27.85,NW,323,0.3,2.2,87,0.00,,,0.21,WSDL version 420,2013-06-11 09:03:00,
2013-06-11 05:08:00,64.4,60.3,27.85,WSW,240,0.0,2.5,87,0.00,,,0.21,WSDL version 420,2013-06-11 09:08:00,
2013-06-11 05:13:00,64.4,60.6,27.85,NNE,23,0.0,2.5,88,0.00,,,0.21,WSDL version 420,2013-06-11 09:13:00,
2013-06-11 05:18:00,64.4,60.7,27.85,NNW,338,0.0,0.0,88,0.00,,,0.21,WSDL version 420,2013-06-11 09:18:00,
2013-06-11 05:23:00,64.4,60.7,27.85,NW,315,0.0,0.9,88,0.00,,,0.21,WSDL version 420,2013-06-11 09:23:00,
2013-06-11 05:28:00,64.4,60.7,27.85,NNW,330,0.0,0.9,88,0.00,,,0.21,WSDL version 420,2013-06-11 09:28:00,
2013-06-11 05:33:00,64.2,60.5,27.85,NE,38,0.0,0.0,88,0.00,,,0.21,WSDL version 420,2013-06-11 09:33:00,
2013-06-11 05:38:00,64.2,60.5,27.85,WNW,293,0.0,0.0,88,0.00,,,0.21,WSDL version 420,2013-06-11 09:38:00,
2013-06-11 05:43:00,64.2,60.8,27.85,WNW,285,1.3,1.3,89,0.00,,,0.21,WSDL version 420,2013-06-11 09:43:00,
2013-06-11 05:48:00,64.2,60.9,27.85,WNW,293,1.4,2.5,89,0.00,,,0.21,WSDL version 420,2013-06-11 09:48:00,
2013-06-11 05:53:00,64.2,60.7,27.85,WNW,285,0.3,2.5,88,0.00,,,0.21,WSDL version 420,2013-06-11 09:53:00,
2013-06-11 05:58:00,64.2,60.6,27.85,WSW,255,0.0,0.9,88,0.00,,,0.21,WSDL version 420,2013-06-11 09:58:00,
2013-06-11 06:03:00,64.2,60.8,27.85,North,8,0.0,0.9,89,0.00,,,0.21,WSDL version 420,2013-06-11 10:03:00,
2013-06-11 06:08:00,64.2,60.9,27.85,WNW,293,0.0,0.0,89,0.00,,,0.21,WSDL version 420,2013-06-11 10:08:00,
2013-06-11 06:13:00,64.1,60.8,27.85,SSE,158,0.3,1.3,89,0.00,,,0.21,WSDL version 420,2013-06-11 10:13:00,
2013-06-11 06:18:00,64.2,60.8,27.85,SW,233,0.0,1.3,89,0.00,,,0.21,WSDL version 420,2013-06-11 10:18:00,
2013-06-11 06:23:00,64.0,60.7,27.85,West,278,0.0,1.1,89,0.00,,,0.21,WSDL version 420,2013-06-11 10:23:00,
2013-06-11 06:28:00,64.1,60.8,27.85,WNW,293,0.7,1.1,89,0.00,,,0.21,WSDL version 420,2013-06-11 10:28:00,
2013-06-11 06:33:00,64.0,60.7,27.85,North,360,0.0,1.3,89,0.00,,,0.21,WSDL version 420,2013-06-11 10:33:00,
2013-06-11 06:38:00,64.0,60.7,27.85,North,353,0.7,1.3,89,0.00,,,0.21,WSDL version 420,2013-06-11 10:38:00,
2013-06-11 06:43:00,64.0,60.7,27.85,NW,315,0.0,1.1,89,0.00,,,0.21,WSDL version 420,2013-06-11 10:43:00,
2013-06-11 06:48:00,64.0,60.7,27.85,NW,308,0.0,3.4,89,0.00,,,0.21,WSDL version 420,2013-06-11 10:48:00,
2013-06-11 06:53:00,64.0,60.7,27.88,NW,308,0.0,3.4,89,0.00,,,0.21,WSDL version 420,2013-06-11 10:53:00,
2013-06-11 06:58:00,64.0,60.7,27.88,NNE,15,0.0,0.0,89,0.00,,,0.21,WSDL version 420,2013-06-11 10:58:00,
2013-06-11 07:03:00,64.0,60.6,27.88,West,278,0.0,2.5,89,0.00,,,0.21,WSDL version 420,2013-06-11 11:03:00,
2013-06-11 07:08:00,64.0,60.7,27.88,SW,218,0.0,2.5,89,0.00,,,0.21,WSDL version 420,2013-06-11 11:08:00,
2013-06-11 07:13:00,64.2,60.8,27.88,WNW,293,0.0,1.3,89,0.00,,,0.21,WSDL version 420,2013-06-11 11:13:00,
2013-06-11 07:18:00,64.2,60.9,27.88,NW,326,0.8,2.0,89,0.00,,,0.21,WSDL version 420,2013-06-11 11:18:00,
2013-06-11 07:23:00,64.0,60.7,27.88,NW,308,0.0,2.0,89,0.00,,,0.21,WSDL version 420,2013-06-11 11:23:00,
2013-06-11 07:28:00,64.0,60.6,27.88,ESE,105,0.0,1.1,88,0.00,,,0.21,WSDL version 420,2013-06-11 11:28:00,
2013-06-11 07:33:00,63.9,60.2,27.88,North,8,0.0,1.1,88,0.00,,,0.21,WSDL version 420,2013-06-11 11:33:00,
2013-06-11 07:38:00,64.0,60.3,27.88,WNW,293,0.0,0.9,88,0.00,,,0.21,WSDL version 420,2013-06-11 11:38:00,
2013-06-11 07:43:00,64.0,60.3,27.88,West,278,0.0,0.0,88,0.00,,,0.21,WSDL version 420,2013-06-11 11:43:00,
2013-06-11 07:48:00,64.0,60.3,27.88,NNE,17,0.2,0.9,88,0.00,,,0.21,WSDL version 420,2013-06-11 11:48:00,
2013-06-11 07:53:00,64.0,60.3,27.88,North,360,0.0,1.1,88,0.00,,,0.21,WSDL version 420,2013-06-11 11:53:00,
2013-06-11 07:58:00,64.0,60.3,27.88,WSW,248,0.0,1.6,88,0.00,,,0.21,WSDL version 420,2013-06-11 11:58:00,
2013-06-11 08:03:00,64.0,60.3,27.88,NW,308,1.6,2.7,88,0.00,,,0.21,WSDL version 420,2013-06-11 12:03:00,
2013-06-11 08:08:00,64.0,60.2,27.88,West,270,1.0,2.7,87,0.00,,,0.21,WSDL version 420,2013-06-11 12:08:00,
2013-06-11 08:13:00,64.2,60.1,27.88,West,278,0.7,2.2,87,0.00,,,0.21,WSDL version 420,2013-06-11 12:13:00,
2013-06-11 08:18:00,64.2,60.2,27.88,South,173,2.3,3.1,87,0.00,,,0.21,WSDL version 420,2013-06-11 12:18:00,
2013-06-11 08:23:00,64.2,60.2,27.91,SSW,203,1.4,3.1,87,0.00,,,0.21,WSDL version 420,2013-06-11 12:23:00,
2013-06-11 08:28:00,64.2,59.9,27.91,NW,326,2.1,2.2,86,0.00,,,0.21,WSDL version 420,2013-06-11 12:28:00,
2013-06-11 08:33:00,64.2,59.8,27.91,SSW,210,0.7,2.2,86,0.00,,,0.21,WSDL version 420,2013-06-11 12:33:00,
2013-06-11 08:38:00,64.2,59.8,27.91,ENE,75,1.6,2.7,86,0.00,,,0.21,WSDL version 420,2013-06-11 12:38:00,
2013-06-11 08:43:00,64.2,59.8,27.91,ENE,75,1.0,2.7,86,0.00,,,0.21,WSDL version 420,2013-06-11 12:43:00,
2013-06-11 08:48:00,64.3,59.7,27.91,NW,304,2.2,3.6,84,0.00,,,0.21,WSDL version 420,2013-06-11 12:48:00,
2013-06-11 08:53:00,64.5,59.7,27.91,SW,218,0.0,3.6,84,0.00,,,0.21,WSDL version 420,2013-06-11 12:53:00,
2013-06-11 08:58:00,64.6,59.8,27.91,SSE,158,0.4,3.1,84,0.00,,,0.21,WSDL version 420,2013-06-11 12:58:00,
2013-06-11 09:03:00,64.8,60.0,27.91,WSW,255,1.3,2.0,84,0.00,,,0.21,WSDL version 420,2013-06-11 13:03:00,
2013-06-11 09:08:00,65.0,59.8,27.91,SSW,203,0.0,1.3,83,0.00,,,0.21,WSDL version 420,2013-06-11 13:08:00,
2013-06-11 09:13:00,65.1,59.9,27.91,WNW,285,0.4,2.0,83,0.00,,,0.21,WSDL version 420,2013-06-11 13:13:00,
2013-06-11 09:20:00,65.2,60.0,27.91,WSW,255,0.0,2.0,83,0.00,,,0.21,WSDL version 420,2013-06-11 13:20:00,
2013-06-11 09:25:00,65.7,60.5,27.91,WSW,240,1.0,1.3,83,0.00,,,0.21,WSDL version 420,2013-06-11 13:25:00,
2013-06-11 09:31:00,66.0,60.8,27.91,WNW,293,0.9,1.3,83,0.00,,,0.21,WSDL version 420,2013-06-11 13:31:00,
2013-06-11 09:41:00,65.8,60.3,27.91,WNW,293,0.9,2.7,82,0.00,,,0.21,WSDL version 420,2013-06-11 13:41:00,
2013-06-11 09:51:00,66.1,60.3,27.91,North,360,0.0,2.7,81,0.00,,,0.21,WSDL version 420,2013-06-11 13:51:00,
2013-06-11 10:01:00,66.4,60.2,27.91,NW,315,4.7,6.0,80,0.00,,,0.21,WSDL version 420,2013-06-11 14:01:00,
2013-06-11 10:06:00,66.7,60.4,27.91,WSW,248,1.6,6.0,80,0.00,,,0.21,WSDL version 420,2013-06-11 14:06:00,
2013-06-11 10:16:00,67.1,60.4,27.91,SSW,210,1.6,4.3,79,0.00,,,0.21,WSDL version 420,2013-06-11 14:16:00,
2013-06-11 10:21:00,67.2,60.3,27.91,NW,323,2.2,3.1,78,0.00,,,0.21,WSDL version 420,2013-06-11 14:21:00,
2013-06-11 10:26:00,67.3,59.9,27.91,WSW,248,0.0,3.1,77,0.00,,,0.21,WSDL version 420,2013-06-11 14:26:00,
2013-06-11 10:31:00,67.5,60.0,27.91,WNW,293,1.6,3.1,77,0.00,,,0.21,WSDL version 420,2013-06-11 14:31:00,
2013-06-11 10:41:00,68.0,60.0,27.91,West,270,1.6,2.9,75,0.00,,,0.21,WSDL version 420,2013-06-11 14:41:00,
2013-06-11 10:46:00,68.2,59.9,27.91,NW,315,1.6,2.9,74,-99.99,,,-99.99,WSDL version 420,2013-06-11 14:46:00,
2013-06-11 10:51:00,68.3,59.6,27.91,West,263,1.4,3.4,73,0.00,,,0.21,WSDL version 420,2013-06-11 14:51:00,
2013-06-11 10:56:00,68.1,59.1,27.91,West,263,2.5,3.8,73,0.00,,,0.21,WSDL version 420,2013-06-11 14:56:00,
2013-06-11 11:06:00,68.4,59.0,27.91,SSW,203,1.9,2.9,72,0.00,,,0.21,WSDL version 420,2013-06-11 15:06:00,
2013-06-11 11:11:00,68.5,59.2,27.91,SSW,203,1.6,2.9,72,0.00,,,0.21,WSDL version 420,2013-06-11 15:11:00,
2013-06-11 11:18:00,68.8,59.0,27.91,WSW,255,1.7,2.9,71,0.00,,,0.21,WSDL version 420,2013-06-11 15:18:00,
2013-06-11 11:23:00,68.8,59.0,27.91,NNW,338,1.7,3.6,71,0.00,,,0.21,WSDL version 420,2013-06-11 15:23:00,
2013-06-11 11:28:00,68.9,59.1,27.91,SSW,203,1.9,3.6,71,0.00,,,0.21,WSDL version 420,2013-06-11 15:28:00,
2013-06-11 11:33:00,69.2,59.4,27.91,WSW,248,2.5,3.1,71,0.00,,,0.21,WSDL version 420,2013-06-11 15:33:00,
2013-06-11 11:38:00,69.7,59.5,27.91,East,79,2.2,2.9,70,0.00,,,0.21,WSDL version 420,2013-06-11 15:38:00,
2013-06-11 11:43:00,69.9,59.3,27.91,NE,51,2.3,3.4,69,0.00,,,0.21,WSDL version 420,2013-06-11 15:43:00,
2013-06-11 11:48:00,70.0,58.9,27.91,NNW,330,0.0,3.4,68,0.00,,,0.21,WSDL version 420,2013-06-11 15:48:00,
2013-06-11 11:53:00,70.4,59.6,27.91,WSW,240,1.9,2.9,69,0.00,,,0.21,WSDL version 420,2013-06-11 15:53:00,
2013-06-11 11:58:00,70.1,59.4,27.91,NNW,338,0.0,2.9,69,-99.99,,,-99.99,WSDL version 420,2013-06-11 15:58:00,
2013-06-11 12:03:00,70.2,59.2,27.91,West,278,2.4,3.1,68,0.00,,,0.21,WSDL version 420,2013-06-11 16:03:00,
2013-06-11 12:08:00,70.5,59.3,27.91,ENE,68,1.8,3.1,67,0.00,,,0.21,WSDL version 420,2013-06-11 16:08:00,
2013-06-11 12:13:00,71.2,59.7,27.91,West,259,1.8,2.2,67,0.00,,,0.21,WSDL version 420,2013-06-11 16:13:00,
2013-06-11 12:18:00,70.9,59.4,27.91,WSW,248,1.4,2.9,67,0.00,,,0.21,WSDL version 420,2013-06-11 16:18:00,
2013-06-11 12:25:00,70.9,59.4,27.91,NNE,23,2.0,4.3,67,0.00,,,0.21,WSDL version 420,2013-06-11 16:25:00,
2013-06-11 12:30:00,71.4,59.8,27.91,NNW,332,1.7,2.7,66,-99.99,,,-99.99,WSDL version 420,2013-06-11 16:30:00,
2013-06-11 12:35:00,71.6,59.4,27.91,West,259,2.9,3.4,65,0.00,,,0.21,WSDL version 420,2013-06-11 16:35:00,
2013-06-11 12:40:00,72.1,59.8,27.91,NNW,338,0.8,3.4,65,0.00,,,0.21,WSDL version 420,2013-06-11 16:40:00,
2013-06-11 12:45:00,72.6,60.2,27.91,West,270,1.8,3.6,65,0.00,,,0.21,WSDL version 420,2013-06-11 16:45:00,
2013-06-11 12:50:00,73.1,60.5,27.91,ENE,68,3.0,4.5,64,0.00,,,0.21,WSDL version 420,2013-06-11 16:50:00,
2013-06-11 12:55:00,73.2,60.1,27.91,West,278,1.4,4.5,63,0.00,,,0.21,WSDL version 420,2013-06-11 16:55:00,
2013-06-11 13:00:00,73.6,60.2,27.91,SW,218,2.3,3.4,63,0.00,,,0.21,WSDL version 420,2013-06-11 17:00:00,
2013-06-11 13:05:00,73.7,59.6,27.91,SW,225,1.8,3.1,61,-99.99,,,-99.99,WSDL version 420,2013-06-11 17:05:00,
2013-06-11 13:15:00,74.0,60.2,27.91,SSW,203,2.7,3.4,62,-99.99,,,-99.99,WSDL version 420,2013-06-11 17:15:00,
2013-06-11 13:20:00,74.1,59.8,27.91,SSE,158,1.1,3.4,61,-99.99,,,-99.99,WSDL version 420,2013-06-11 17:20:00,
2013-06-11 13:25:00,74.5,60.2,27.91,ENE,68,1.6,2.9,61,0.00,,,0.21,WSDL version 420,2013-06-11 17:25:00,
2013-06-11 13:30:00,74.1,59.5,27.91,NE,39,2.1,2.9,60,0.00,,,0.21,WSDL version 420,2013-06-11 17:30:00,
2013-06-11 13:35:00,73.9,58.9,27.91,SW,233,2.0,2.9,60,0.00,,,0.21,WSDL version 420,2013-06-11 17:35:00,
2013-06-11 13:40:00,74.1,59.1,27.91,NNW,338,1.7,3.1,60,0.00,,,0.21,WSDL version 420,2013-06-11 17:40:00,
2013-06-11 13:51:00,73.9,59.2,27.91,ESE,120,1.5,4.0,60,0.00,,,0.21,WSDL version 420,2013-06-11 17:51:00,
2013-06-11 14:01:00,73.9,58.6,27.91,North,360,1.3,3.1,59,0.00,,,0.21,WSDL version 420,2013-06-11 18:01:00,
2013-06-11 14:06:00,74.4,58.7,27.91,East,96,2.5,3.1,58,0.00,,,0.21,WSDL version 420,2013-06-11 18:06:00,
2013-06-11 14:11:00,74.9,59.1,27.91,WNW,293,2.3,2.9,58,0.00,,,0.21,WSDL version 420,2013-06-11 18:11:00,
2013-06-11 14:16:00,75.1,59.4,27.91,SW,218,1.9,3.4,58,0.00,,,0.21,WSDL version 420,2013-06-11 18:16:00,
2013-06-11 14:21:00,75.2,59.3,27.91,WNW,285,2.0,4.3,58,0.00,,,0.21,WSDL version 420,2013-06-11 18:21:00,
2013-06-11 14:26:00,75.1,59.0,27.91,WSW,248,0.7,4.3,57,0.00,,,0.21,WSDL version 420,2013-06-11 18:26:00,
2013-06-11 14:31:00,74.9,58.7,27.91,NNW,343,2.2,2.9,57,0.00,,,0.21,WSDL version 420,2013-06-11 18:31:00,
2013-06-11 14:41:00,75.1,58.9,27.91,NNE,23,1.3,2.9,57,0.00,,,0.21,WSDL version 420,2013-06-11 18:41:00,
2013-06-11 14:46:00,76.1,59.9,27.91,West,276,1.2,3.1,57,0.00,,,0.21,WSDL version 420,2013-06-11 18:46:00,
2013-06-11 14:56:00,76.3,59.3,27.91,East,98,1.9,2.5,55,0.00,,,0.21,WSDL version 420,2013-06-11 18:56:00,
2013-06-11 15:01:00,76.5,59.3,27.91,NE,53,1.6,2.9,55,0.00,,,0.21,WSDL version 420,2013-06-11 19:01:00,
2013-06-11 15:07:00,76.7,59.4,27.91,ESE,113,2.7,3.4,55,0.00,,,0.21,WSDL version 420,2013-06-11 19:07:00,
2013-06-11 15:13:00,76.0,58.4,27.91,NW,323,2.0,3.4,54,0.00,,,0.21,WSDL version 420,2013-06-11 19:13:00,
2013-06-11 15:18:00,76.5,59.3,27.91,ESE,113,1.8,2.9,56,0.00,,,0.21,WSDL version 420,2013-06-11 19:18:00,
2013-06-11 15:23:00,77.2,59.6,27.91,SSW,203,1.6,2.9,55,-99.99,,,-99.99,WSDL version 420,2013-06-11 19:23:00,
2013-06-11 15:28:00,77.3,59.6,27.91,NW,323,2.5,3.1,54,-99.99,,,-99.99,WSDL version 420,2013-06-11 19:28:00,
2013-06-11 15:33:00,76.1,58.4,27.91,WNW,300,2.5,3.4,55,0.00,,,0.21,WSDL version 420,2013-06-11 19:33:00,
2013-06-11 15:38:00,76.1,58.4,27.91,North,8,3.4,5.4,54,0.00,,,0.21,WSDL version 420,2013-06-11 19:38:00,
2013-06-11 15:43:00,76.8,59.4,27.91,South,188,2.5,5.4,55,0.00,,,0.21,WSDL version 420,2013-06-11 19:43:00,
2013-06-11 15:48:00,77.4,59.8,27.91,NNW,330,1.7,3.4,54,0.00,,,0.21,WSDL version 420,2013-06-11 19:48:00,
2013-06-11 15:53:00,77.7,59.8,27.91,West,263,2.2,3.1,54,-99.99,,,-99.99,WSDL version 420,2013-06-11 19:53:00,
2013-06-11 15:58:00,77.9,59.6,27.91,WSW,255,1.1,2.9,53,0.00,,,0.21,WSDL version 420,2013-06-11 19:58:00,
2013-06-11 16:03:00,78.0,59.5,27.91,South,188,1.4,3.6,53,0.00,,,0.21,WSDL version 420,2013-06-11 20:03:00,
2013-06-11 16:08:00,77.9,59.4,27.91,East,84,2.1,4.0,53,0.00,,,0.21,WSDL version 420,2013-06-11 20:08:00,
2013-06-11 16:13:00,77.9,59.1,27.91,WNW,293,1.2,4.0,53,-99.99,,,-99.99,WSDL version 420,2013-06-11 20:13:00,
2013-06-11 16:18:00,78.2,59.5,27.91,North,360,1.6,2.9,52,0.00,,,0.21,WSDL version 420,2013-06-11 20:18:00,
2013-06-11 16:23:00,78.0,58.8,27.91,NE,45,2.5,2.9,52,0.00,,,0.21,WSDL version 420,2013-06-11 20:23:00,
2013-06-11 16:28:00,77.7,58.5,27.91,NNE,23,0.5,2.9,52,0.00,,,0.21,WSDL version 420,2013-06-11 20:28:00,
2013-06-11 16:33:00,77.7,58.1,27.91,NNW,338,2.2,4.0,52,0.00,,,0.21,WSDL version 420,2013-06-11 20:33:00,
2013-06-11 16:38:00,77.5,57.8,27.88,SSW,208,1.8,4.0,50,0.00,,,0.21,WSDL version 420,2013-06-11 20:38:00,
2013-06-11 16:43:00,77.4,57.3,27.88,NNW,338,1.4,2.9,50,0.00,,,0.21,WSDL version 420,2013-06-11 20:43:00,
2013-06-11 16:48:00,77.3,57.4,27.88,West,270,1.1,2.7,51,0.00,,,0.21,WSDL version 420,2013-06-11 20:48:00,
2013-06-11 16:53:00,77.8,58.6,27.88,East,101,0.9,3.1,52,0.00,,,0.21,WSDL version 420,2013-06-11 20:53:00,
2013-06-11 16:58:00,77.9,58.5,27.88,NE,53,2.6,3.1,51,0.00,,,0.21,WSDL version 420,2013-06-11 20:58:00,
2013-06-11 17:03:00,77.8,57.9,27.88,NNW,338,1.8,3.8,50,0.00,,,0.21,WSDL version 420,2013-06-11 21:03:00,
2013-06-11 17:08:00,77.8,57.9,27.88,ENE,75,1.7,3.8,51,0.00,,,0.21,WSDL version 420,2013-06-11 21:08:00,
2013-06-11 17:13:00,78.1,58.2,27.88,West,263,2.5,3.1,50,0.00,,,0.21,WSDL version 420,2013-06-11 21:13:00,
2013-06-11 17:18:00,78.1,58.1,27.88,North,8,1.9,3.1,50,0.00,,,0.21,WSDL version 420,2013-06-11 21:18:00,
2013-06-11 17:23:00,78.0,58.1,27.88,WSW,248,2.7,3.1,51,0.00,,,0.21,WSDL version 420,2013-06-11 21:23:00,
2013-06-11 17:28:00,77.2,57.4,27.88,North,353,2.2,3.1,51,0.00,,,0.21,WSDL version 420,2013-06-11 21:28:00,
2013-06-11 17:33:00,77.2,57.2,27.88,SSE,158,1.4,3.1,50,0.00,,,0.21,WSDL version 420,2013-06-11 21:33:00,
2013-06-11 17:38:00,77.2,57.4,27.88,NNW,338,1.7,3.4,50,0.00,,,0.21,WSDL version 420,2013-06-11 21:38:00,
2013-06-11 17:43:00,77.6,57.9,27.88,WNW,300,0.4,3.4,51,0.00,,,0.21,WSDL version 420,2013-06-11 21:43:00,
2013-06-11 17:48:00,77.8,57.7,27.88,West,281,2.7,4.3,49,0.00,,,0.21,WSDL version 420,2013-06-11 21:48:00,
2013-06-11 17:53:00,77.6,57.5,27.91,NW,308,1.3,4.3,50,0.00,,,0.21,WSDL version 420,2013-06-11 21:53:00,
2013-06-11 17:58:00,76.9,56.7,27.91,NE,38,2.2,3.4,50,0.00,,,0.21,WSDL version 420,2013-06-11 21:58:00,
2013-06-11 18:03:00,76.6,56.6,27.91,South,173,0.4,2.9,50,-99.99,,,-99.99,WSDL version 420,2013-06-11 22:03:00,
2013-06-11 18:08:00,76.7,56.7,27.88,NW,315,0.6,2.5,50,0.00,,,0.21,WSDL version 420,2013-06-11 22:08:00,
2013-06-11 18:13:00,76.8,57.1,27.88,NNE,30,1.4,2.9,51,0.00,,,0.21,WSDL version 420,2013-06-11 22:13:00,
2013-06-11 18:18:00,77.1,57.4,27.88,West,278,1.9,2.9,51,0.00,,,0.21,WSDL version 420,2013-06-11 22:18:00,
2013-06-11 18:23:00,77.2,57.7,27.88,NNW,338,1.5,2.9,51,0.00,,,0.21,WSDL version 420,2013-06-11 22:23:00,
2013-06-11 18:28:00,77.1,57.4,27.88,North,353,2.5,3.4,50,0.00,,,0.21,WSDL version 420,2013-06-11 22:28:00,
2013-06-11 18:33:00,76.6,57.2,27.88,NNW,332,1.9,3.4,51,0.00,,,0.21,WSDL version 420,2013-06-11 22:33:00,
2013-06-11 18:38:00,76.3,56.8,27.88,East,84,1.8,4.0,51,0.00,,,0.21,WSDL version 420,2013-06-11 22:38:00,
2013-06-11 18:43:00,76.5,57.6,27.88,North,11,1.7,4.0,52,0.00,,,0.21,WSDL version 420,2013-06-11 22:43:00,
2013-06-11 18:48:00,76.3,57.4,27.88,NW,323,1.3,2.2,52,0.00,,,0.21,WSDL version 420,2013-06-11 22:48:00,
2013-06-11 18:53:00,76.0,56.7,27.88,WNW,293,1.4,2.0,51,-99.99,,,-99.99,WSDL version 420,2013-06-11 22:53:00,
2013-06-11 18:58:00,76.0,56.9,27.88,North,349,2.0,2.5,52,0.00,,,0.21,WSDL version 420,2013-06-11 22:58:00,
2013-06-11 19:03:00,76.3,57.0,27.88,West,263,2.5,3.6,51,0.00,,,0.21,WSDL version 420,2013-06-11 23:03:00,
2013-06-11 19:08:00,76.3,56.8,27.88,WNW,293,1.8,3.6,51,0.00,,,0.21,WSDL version 420,2013-06-11 23:08:00,
2013-06-11 19:13:00,76.0,56.6,27.88,ENE,75,1.3,3.1,51,0.00,,,0.21,WSDL version 420,2013-06-11 23:13:00,
2013-06-11 19:18:00,76.0,56.9,27.88,ENE,60,0.5,2.7,52,0.00,,,0.21,WSDL version 420,2013-06-11 23:18:00,
2013-06-11 19:23:00,76.1,57.2,27.88,North,353,1.3,2.7,52,0.00,,,0.21,WSDL version 420,2013-06-11 23:23:00,
2013-06-11 19:28:00,76.1,57.2,27.88,NE,38,1.9,2.9,52,0.00,,,0.21,WSDL version 420,2013-06-11 23:28:00,
2013-06-11 19:33:00,75.6,56.8,27.88,SE,143,1.1,2.9,52,0.00,,,0.21,WSDL version 420,2013-06-11 23:33:00,
2013-06-11 19:38:00,75.5,56.4,27.88,SW,233,1.2,2.7,52,0.00,,,0.21,WSDL version 420,2013-06-11 23:38:00,
2013-06-11 19:43:00,75.3,56.4,27.88,West,263,0.4,2.7,52,0.00,,,0.21,WSDL version 420,2013-06-11 23:43:00,
2013-06-11 19:48:00,75.2,56.4,27.88,NNE,23,0.0,2.7,52,0.00,,,0.21,WSDL version 420,2013-06-11 23:48:00,
2013-06-11 19:53:00,75.2,56.4,27.88,North,360,0.0,2.7,52,-99.99,,,-99.99,WSDL version 420,2013-06-11 23:53:00,
2013-06-11 19:58:00,75.2,56.4,27.88,SW,225,0.9,2.7,52,0.00,,,0.21,WSDL version 420,2013-06-11 23:58:00,
2013-06-11 20:03:00,75.2,56.7,27.88,NE,34,0.6,2.7,53,0.00,,,0.21,WSDL version 420,2013-06-12 00:03:00,
2013-06-11 20:08:00,75.0,57.0,27.88,NE,45,1.1,2.9,54,0.00,,,0.21,WSDL version 420,2013-06-12 00:08:00,
2013-06-11 20:13:00,74.8,56.9,27.88,SE,128,0.0,2.9,54,0.00,,,0.21,WSDL version 420,2013-06-12 00:13:00,
2013-06-11 20:18:00,74.5,56.8,27.88,East,90,1.1,2.0,54,0.00,,,0.21,WSDL version 420,2013-06-12 00:18:00,
2013-06-11 20:23:00,74.2,56.5,27.88,East,98,0.0,1.3,54,0.00,,,0.21,WSDL version 420,2013-06-12 00:23:00,
2013-06-11 20:28:00,74.1,56.4,27.88,NNW,338,0.0,2.0,54,-99.99,,,-99.99,WSDL version 420,2013-06-12 00:28:00,
2013-06-11 20:33:00,73.9,56.2,27.88,NW,321,0.2,2.0,54,0.00,,,0.21,WSDL version 420,2013-06-12 00:33:00,
2013-06-11 20:38:00,73.8,56.4,27.91,ENE,60,0.0,0.9,55,0.00,,,0.21,WSDL version 420,2013-06-12 00:38:00,
2013-06-11 20:43:00,73.6,56.5,27.91,SW,225,0.0,0.9,55,-99.99,,,-99.99,WSDL version 420,2013-06-12 00:43:00,
2013-06-11 20:48:00,73.4,56.3,27.91,SW,225,0.0,0.0,55,0.00,,,0.21,WSDL version 420,2013-06-12 00:48:00,
2013-06-11 20:53:00,73.2,56.8,27.91,SE,143,0.0,0.0,57,0.00,,,0.21,WSDL version 420,2013-06-12 00:53:00,
2013-06-11 20:58:00,73.1,57.0,27.91,East,83,0.0,0.0,57,0.00,,,0.21,WSDL version 420,2013-06-12 00:58:00,
2013-06-11 21:03:00,72.9,56.8,27.91,North,8,0.3,1.3,57,0.00,,,0.21,WSDL version 420,2013-06-12 01:03:00,
2013-06-11 21:08:00,72.6,56.8,27.91,NNE,30,0.0,1.3,58,0.00,,,0.21,WSDL version 420,2013-06-12 01:08:00,
2013-06-11 21:13:00,72.2,56.9,27.91,ENE,75,0.0,0.0,59,0.00,,,0.21,WSDL version 420,2013-06-12 01:13:00,
2013-06-11 21:18:00,72.0,57.0,27.91,NNE,23,0.0,0.0,60,0.00,,,0.21,WSDL version 420,2013-06-12 01:18:00,
2013-06-11 21:23:00,71.8,57.2,27.91,North,353,0.0,0.0,60,0.00,,,0.21,WSDL version 420,2013-06-12 01:23:00,
2013-06-11 21:28:00,71.7,57.1,27.91,WNW,293,0.0,0.0,60,0.00,,,0.21,WSDL version 420,2013-06-12 01:28:00,
2013-06-11 21:33:00,71.5,57.3,27.91,WNW,293,0.0,0.0,61,0.00,,,0.21,WSDL version 420,2013-06-12 01:33:00,
2013-06-11 21:38:00,71.2,57.3,27.91,WNW,293,0.0,0.0,62,0.00,,,0.21,WSDL version 420,2013-06-12 01:38:00,
2013-06-11 21:43:00,71.2,57.5,27.91,WNW,293,0.0,0.0,62,0.00,,,0.21,WSDL version 420,2013-06-12 01:43:00,
2013-06-11 21:48:00,71.1,57.4,27.91,WNW,293,0.0,0.0,62,0.00,,,0.21,WSDL version 420,2013-06-12 01:48:00,
2013-06-11 21:53:00,70.9,57.2,27.91,NE,53,0.0,0.0,62,0.00,,,0.21,WSDL version 420,2013-06-12 01:53:00,
2013-06-11 21:58:00,70.9,57.2,27.91,NE,38,0.0,0.9,62,0.00,,,0.21,WSDL version 420,2013-06-12 01:58:00,
2013-06-11 22:03:00,70.7,57.3,27.91,NNE,28,0.0,0.9,63,0.00,,,0.21,WSDL version 420,2013-06-12 02:03:00,
2013-06-11 22:08:00,70.5,57.3,27.91,South,173,0.0,0.0,63,0.00,,,0.21,WSDL version 420,2013-06-12 02:08:00,
2013-06-11 22:13:00,70.3,57.4,27.91,SE,143,0.0,0.0,64,0.00,,,0.21,WSDL version 420,2013-06-12 02:13:00,
2013-06-11 22:18:00,69.8,57.2,27.91,ESE,113,0.0,0.0,65,0.00,,,0.21,WSDL version 420,2013-06-12 02:18:00,
2013-06-11 22:23:00,69.6,57.3,27.91,South,188,0.0,1.3,65,0.00,,,0.21,WSDL version 420,2013-06-12 02:23:00,
2013-06-11 22:28:00,69.4,57.3,27.91,SSE,158,0.0,1.3,66,0.00,,,0.21,WSDL version 420,2013-06-12 02:28:00,
2013-06-11 22:33:00,69.3,57.4,27.91,SSE,158,0.0,0.0,66,0.00,,,0.21,WSDL version 420,2013-06-12 02:33:00,
2013-06-11 22:38:00,69.1,57.3,27.91,SSE,158,0.0,0.0,66,0.00,,,0.21,WSDL version 420,2013-06-12 02:38:00,
2013-06-11 22:43:00,69.0,57.1,27.91,SSE,158,0.0,0.0,66,0.00,,,0.21,WSDL version 420,2013-06-12 02:43:00,
2013-06-11 22:48:00,68.7,57.3,27.91,SSE,158,0.0,0.0,67,-99.99,,,-99.99,WSDL version 420,2013-06-12 02:48:00,
2013-06-11 22:53:00,68.6,57.2,27.91,SSE,158,0.0,0.0,67,0.00,,,0.21,WSDL version 420,2013-06-12 02:53:00,
2013-06-11 22:58:00,68.2,57.3,27.91,SSE,158,0.0,0.0,68,0.00,,,0.21,WSDL version 420,2013-06-12 02:58:00,
2013-06-11 23:03:00,68.3,57.3,27.91,SSE,158,0.0,0.0,68,0.00,,,0.21,WSDL version 420,2013-06-12 03:03:00,
2013-06-11 23:08:00,68.1,57.2,27.91,East,90,0.7,1.1,68,0.00,,,0.21,WSDL version 420,2013-06-12 03:08:00,
2013-06-11 23:13:00,67.9,57.2,27.91,East,98,0.0,1.1,69,0.00,,,0.21,WSDL version 420,2013-06-12 03:13:00,
2013-06-11 23:18:00,68.0,57.1,27.91,ENE,68,0.0,0.9,68,0.00,,,0.21,WSDL version 420,2013-06-12 03:18:00,
2013-06-11 23:23:00,67.9,57.2,27.91,South,180,0.0,0.0,69,0.00,,,0.21,WSDL version 420,2013-06-12 03:23:00,
2013-06-11 23:28:00,67.6,57.1,27.91,ENE,68,0.0,0.0,69,0.00,,,0.21,WSDL version 420,2013-06-12 03:28:00,
2013-06-11 23:33:00,67.8,57.3,27.91,NNE,23,0.0,0.0,69,0.00,,,0.21,WSDL version 420,2013-06-12 03:33:00,
2013-06-11 23:38:00,67.6,57.1,27.91,NNE,23,0.0,0.0,69,0.00,,,0.21,WSDL version 420,2013-06-12 03:38:00,
2013-06-11 23:43:00,67.3,56.8,27.91,NNE,23,0.0,0.0,69,0.00,,,0.21,WSDL version 420,2013-06-12 03:43:00,
2013-06-11 23:48:00,67.3,57.2,27.91,NNE,23,0.0,0.0,70,0.00,,,0.21,WSDL version 420,2013-06-12 03:48:00,
2013-06-11 23:53:00,67.2,57.1,27.91,NNE,23,0.0,0.0,70,0.00,,,0.21,WSDL version 420,2013-06-12 03:53:00,
2013-06-11 23:58:00,66.9,56.8,27.91,NNE,23,0.0,0.0,70,0.00,,,0.21,WSDL version 420,2013-06-12 03:58:00,